DELTA 1 DEB, 40766

Orbit data source: Space-Track

DELTA 1 DEB, 40766 is space debris in SSO originally from a launch on Thu, 29 Jul 1976 UTC launched from the Air Force Western Test Range (AFWTR). Debris objects in space refer to the collection of defunct objects orbiting the Earth. Examples of debris include non-operational satellites, rocket bodies, and fragments generated from explosions, collisions, or faulty payload assembly.

Loading next visibility...
Identifier
40766, 1976-077GK
Orbit
SSO
Country
Flag of USUS
Related business
Manufacturer
Unknown
Mission
Spacecraft
Bus & Motor
Unknown
Mass
Unknown
Launch date (UTC)
1976-07-29 (49 years ago)
Launch vehicle
Unknown
Launch site
Air Force Western Test Range (AFWTR)
Object type
Payload
Rocket body
Debris
Shape & HBR
Unknown shape, 0.1 m
Radar Cross Section
Small (<0.1 m²)

Expand to show TLE details & history
Last TLE update: 1 day ago

TLE from 1 day ago
0 DELTA 1 DEB
1 40766U 76077GK  26012.21478380  .00000001  00000-0  40001-3 0  9993
2 40766 102.1506 277.6946 0101392 126.3054  26.8491 12.23242210101885
Epoch: 2026-01-12T05:09Z
TLE epoch observation values (Epoch: 2026-01-12T05:09:17.320Z)
Latitude
25.71377°
Longitude
-85.42018°
Altitude
1,509.408 km
Speed
7.144 km/s
True Right ascension
06h 54m 28s
True Declination
25° 35' 33"
Sunlit
Object was in full shadow at epoch
Visualization orbit readout
Latitude
Unknown
Longitude
Unknown
Altitude
Unknown
Speed
Unknown
Apparent Right ascension
Unknown
Apparent Declination
Unknown
Sunlit
N/A
Visualization observer readout
Local Sidereal Time
06:57:38
Azimuth
Unknown
Elevation
Unknown
Doppler factor
Unknown
Orbital elements
Apogee altitude
1,656.705 km
Perigee altitude
1,495.407 km
Semi-major axis
7,954.193 km
Eccentricity
0.01014
Inclination
102.1506°
RAAN
277.6946°
Arg. of periapsis
126.3054°
True anomaly
27.37984°
Mean anomaly
26.8491°
Eccentric anomaly
27.11387°
Mean motion
3.05949 °/min
Orbital period
117.67 mins
BSTAR
0.00040001
Loading maneuver chart data...
Computing Atmospheric mass density...
Loading historical data...
Loading historical data...
Loading historical data...
Loading historical data...
Loading historical data...
Loading historical data...
Loading historical data...

Documentation

Showing up to 5 results
|